Preview of NWS' New Version of Forecast
This preview is not operational and should not be used for support decisions.

Regional Weather Roundup (RWR)

Issued by National Weather Service (NWS)

                            
000
ASUS43 KMKX 241320
RWRWI 

WISCONSIN REGIONAL WEATHER ROUNDUP
NATIONAL WEATHER SERVICE MILWAUKEE/SULLIVAN WI
800 AM CDT FRI MAY 24 2019

NOTE: "FAIR" INDICATES FEW OR NO CLOUDS BELOW 12,000 FEET WITH NO
SIGNIFICANT WEATHER AND/OR OBSTRUCTIONS TO VISIBILITY.

WIZ001-002-006>008-014>016-023>028-241400-
NORTHWEST WISCONSIN
  
CITY           SKY/WX    TMP DP  RH WIND       PRES   REMARKS
SUPERIOR ARPT  PTSUNNY   45  44  95 NE8       30.08F                  
ASHLAND        CLOUDY    48  46  93 NE6       30.11F                  
HAYWARD        PTSUNNY   51  45  79 E7        30.07S                  
SIREN          CLOUDY    52  45  76 E7        30.05S                  
CUMBERLAND     CLOUDY    50  43  76 E9        30.05S                  
RICE LAKE      CLOUDY    52  47  84 E12       30.06F                  
CHETEK         CLOUDY    51  47  86 SE7       30.05F                  
LADYSMITH      CLOUDY    50  45  83 E8        30.10R                  
EAU CLAIRE     CLOUDY    52  47  83 SE13      30.04F                  
MENOMONIE      PTSUNNY   49  46  86 E13       30.04F                  
NEW RICHMOND   CLOUDY    52  47  83 SE8       30.03R                  
OSCEOLA        CLOUDY    53  49  86 E12       30.04F                  
$$
 
WIZ003>005-009-010-017-018-241400-
NORTH CENTRAL WISCONSIN
  
CITY           SKY/WX    TMP DP  RH WIND       PRES   REMARKS
MANITOWISH WTR CLOUDY    46  46 100 E7        30.11F                  
ARBOR VITAE    CLOUDY    49  45  86 E10       30.10F                  
WOODRUFF       CLOUDY    49  45  86 E10       30.10F                  
RHINELANDER    CLOUDY    50  42  74 E13       30.11F                  
EAGLE RIVER    CLOUDY    47  43  84 SE9       30.11F                  
LAND O LAKES   CLOUDY    47  44  86 SE10      30.13F                  
PHILLIPS       CLOUDY    48  45  90 E7        30.10R                  
TOMAHAWK       CLOUDY    48  43  84 E6        30.12R                  
MEDFORD        PTSUNNY   48  44  85 E10       30.08S                  
MERRILL        CLOUDY    49  46  90 E3        30.10F                  
$$
 
WIZ029-030-035-036-043>047-241400-
CENTRAL WISCONSIN
  
CITY           SKY/WX    TMP DP  RH WIND       PRES   REMARKS
WAUSAU         PTSUNNY   50  45  83 SE16      30.08F                  
MOSINEE        PTSUNNY   48  46  93 E10       30.09F                  
MARSHFIELD     CLOUDY    50  46  86 SE13G21   30.08S                  
STEVENS POINT  CLOUDY    49  47  91 E10       30.09F                  
WAUPACA        DRIZZLE   54  49  85 E9        30.09F                  
WAUTOMA        LGT RAIN  51  50  96 E7        30.08F                  
WISC RAPIDS    CLOUDY    51  48  89 E12       30.08F                  
CAMP DOUGLAS   PTSUNNY   54  54 100 SE7       30.05S                  
$$
 
WIZ011>013-019>022-031-037>040-048>050-241400-
NORTHEAST WISCONSIN
  
CITY           SKY/WX    TMP DP  RH WIND       PRES   REMARKS
ANTIGO         CLOUDY    48  45  88 E14       30.11F                  
SHAWANO        CLOUDY    52  48  86 E7        30.14S                  
OCONTO         CLOUDY    50  48  92 E6        30.14F                  
STURGEON BAY   PTSUNNY   51  47  86 E3        30.16F                  
GREEN BAY      CLOUDY    52  47  83 E9        30.14F                  
MANITOWOC      CLOUDY    48  46  93 E9        30.15F                  
APPLETON       CLOUDY    50  45  81 SE14      30.11F                  
CLINTONVILLE   CLOUDY    50  46  86 E6        30.12F                  
OSHKOSH        LGT RAIN  53  50  89 E13       30.10F                  
$$
 
WIZ032>034-041-042-053>061-241400-
SOUTHWEST WISCONSIN
  
CITY           SKY/WX    TMP DP  RH WIND       PRES   REMARKS
LA CROSSE      PTSUNNY   56  50  80 SE7       30.02F                  
SPARTA         PTSUNNY   51  49  93 CALM      30.05S                  
VIROQUA        CLOUDY    52  52 100 SE14      30.05S                  
BOSCOBEL       CLOUDY    56  51  84 VRB3      30.05F                  
PRAIRIE DU CHI CLOUDY    55  52  92 SE7       30.04F                  
PLATTEVILLE    CLOUDY    55  55 100 E13       30.06S                  
$$

WIZ056-057-062-063-064-067-068-241400-
SOUTH CENTRAL WISCONSIN
  
CITY           SKY/WX    TMP DP  RH WIND       PRES   REMARKS
REEDSBURG      PTSUNNY   53  53 100 SE6       30.05F                  
BARABOO/DELLS  FAIR      53  50  92 SE14      30.06F                  
LONE ROCK      LGT RAIN  55  52  89 E12       30.06S                  
MINERAL POINT  CLOUDY    54 N/A N/A SE9       30.07S                  
MADISON        PTSUNNY   54  52  93 SE9       30.07F                  
MIDDLETON      CLOUDY    55  53  92 SE8       30.08F                  
WATERTOWN      DRIZZLE   52  52 100 SE5       30.09F                  
MONROE         LGT RAIN  53  53  97 E8        30.08S                  
JANESVILLE     PTSUNNY   54  54 100 SE14G21   30.07F                  
$$
 
WIZ051-052-058>065-066-070>072-241400-
SOUTHEAST WISCONSIN
  
CITY           SKY/WX    TMP DP  RH WIND       PRES   REMARKS
MILWAUKEE      LGT RAIN  54  50  86 SE5       30.14F                  
WAUKESHA       LGT RAIN  52  50  93 E9        30.10F                  
MILWAUKEE/TIMM LGT RAIN  52  48  87 SE3       30.15F                  
RACINE         LGT RAIN  53  51  93 SE6       30.15F                  
KENOSHA        LGT RAIN  55  54  96 SE7       30.13F                  
FOND DU LAC    LGT RAIN  54  51  90 E12G20    30.09F                  
SHEBOYGAN      LGT RAIN  48  46  93 E9        30.13F                  
WEST BEND      LGT RAIN  52  52 100 E7        30.10F                  
JUNEAU         DRIZZLE   52  51  96 SE9       30.12F                  
$$

LSZ147-162-241400-
LAKE SUPERIOR
  
STATION/POSITION TIME  TEMP    WIND        PRES    WAVE
                       AIR SEA DIR/SP/G            HT/PER
                 (UTC) (F)     (DEG/KT/KT) (MB)    (FT/S)
W MID LAKE BUOY  1250   39 37   70/ 10/ 12 1021.3F   1
$$
 
LMZ867-665-643>646-241400-
LAKE MICHIGAN
  
STATION/POSITION TIME  TEMP    WIND        PRES    WAVE
                       AIR SEA DIR/SP/G            HT/PER
                 (UTC) (F)     (DEG/KT/KT) (MB)    (FT/S)
N MID LAKE BUOY  1300   41 37   10/  2/  4 1021.6
NORTHPORT PIER   1240   48      CALM  /  1 1021.3F
KEWAUNEE LAKESHO 1254   46     110/  2/  4 1020.4F
SHEBOYGAN LAKESH 1300   44      60/  8/  9 1020.2F
S MID LAKE BUOY  1300   43 40  200/  2/  2 1023.1
KENOSHA   LAKESH 1300   51     140/  9/  9 1020.0
$$

TC  - TEMPERATURE IN CELSIUS
VSB - VISIBILITY IN STATUTE MILES
WCI - WIND CHILL INDEX
HX  - HEAT INDEX